Flag for Canada Weather past 2 weeks in Saskatoon, Saskatchewan, Canada

Now
57 °F

Broken clouds.


Feels Like: 54 °F
Forecast: 54 / 67 °F
Wind: 13 mph from Northwest

Location: Saskatoon Weather Station

Current Time: Jul 26, 2014 at 7:39:50 AM

Latest Report: Jul 26, 2014 at 7:00 AM


Visibility: 15 mi

Pressure: 29.86 "Hg

Humidity: 94%

Dew point: 55 °F

Location of SaskatoonLocation

Historic Weather in Saskatoon — Graph

°F

Saskatoon temperature yesterday

Maximum temperature yesterday: 61 °F (at 10:00 AM)
Minimum temperature yesterday: 52 °F (at 4:00 AM)
Average temperature yesterday: 57 °F

Past Weeks' High & Low Weather Summary

 TemperatureHumidityPressure
High82 °F (Jul 16, 3:00 PM)100% (Jul 14, 4:00 AM)30.44 "Hg (Jul 14, 4:00 AM)
Low43 °F (Jul 13, 5:00 AM)38% (Jul 12, 4:00 PM)29.50 "Hg (Jul 17, 10:00 PM)
Average64 °F74%29.93 "Hg
* Reported Jul 11 6:00 AM — Jul 26 6:00 AM, Saskatoon, Weather by CustomWeather, © 2014

Note: Actual official high and low records may vary slightly from our data, if they occured in-between our weather recording intervals... More about our weather records

Advertising

Saskatoon weather history for previous 24 hours

 ConditionsComfort  
Time TempWeatherWind HumidityBarometerVisibility
6:00 AM
Jul 26
57 °FPartly sunny.7 mph94%29.83 "Hg15 mi
5:00 AM57 °FPassing clouds.10 mph88%29.81 "Hg15 mi
4:00 AM57 °FPartly cloudy.12 mph88%29.77 "Hg15 mi
3:00 AM57 °FMostly cloudy.12 mph94%29.74 "Hg15 mi
2:00 AM57 °FLight rain. Overcast.14 mph88%29.72 "Hg12 mi
1:00 AM57 °FMostly cloudy.15 mph94%29.69 "Hg15 mi
12:00 AM57 °FSprinkles. Mostly cloudy.13 mph94%29.67 "Hg15 mi
11:00 PM
Jul 25
57 °FMostly cloudy.15 mph94%29.62 "Hg15 mi
10:51 PM57 °FMostly cloudy.15 mph94%29.62 "Hg15 mi
10:00 PM57 °FSprinkles. Mostly cloudy.15 mph94%29.59 "Hg12 mi
9:52 PM57 °FSprinkles. Mostly cloudy.14 mph94%29.59 "Hg12 mi
9:00 PM57 °FSprinkles. Broken clouds.7 mph100%29.55 "Hg12 mi
8:00 PM59 °FBroken clouds.No wind94%29.53 "Hg15 mi
7:00 PM59 °FSprinkles. Partly sunny.6 mph94%29.52 "Hg12 mi
6:00 PM59 °FSprinkles. Mostly cloudy.8 mph94%29.52 "Hg12 mi
5:00 PM57 °FSprinkles. Overcast.10 mph100%29.52 "Hg8 mi
4:00 PM57 °FSprinkles. Fog.16 mph94%29.54 "Hg3 mi
3:48 PM57 °FSprinkles. Overcast.15 mph94%29.54 "Hg2 mi
3:00 PM59 °FSprinkles. Mostly cloudy.15 mph88%29.55 "Hg15 mi
2:48 PM57 °FSprinkles. Mostly cloudy.14 mph94%29.56 "Hg15 mi
2:00 PM57 °FSprinkles. Overcast.15 mph94%29.57 "Hg12 mi
1:00 PM57 °FSprinkles. Overcast.17 mph88%29.58 "Hg12 mi
12:00 PM57 °FSprinkles. Mostly cloudy.9 mph88%29.60 "Hg12 mi
11:04 AM61 °FSprinkles. Partly sunny.17 mph63%29.60 "Hg15 mi
10:00 AM61 °FPartly sunny.15 mph72%29.61 "Hg15 mi
9:00 AM59 °FPartly sunny.16 mph77%29.62 "Hg15 mi
8:00 AM55 °FScattered clouds.12 mph82%29.63 "Hg15 mi
7:00 AM54 °FScattered clouds.13 mph82%29.64 "Hg15 mi
Weather by CustomWeather, © 2014

See weather overviewHow to use our weather pages